[Date Prev][Date Next][Thread Prev][Thread Next][Date Index][Thread Index]

[jamsat-news:1163] jas2info #159



========================   最新情報   ==============================

        Last updated :Fri.15-Oct.-1999 17:30 (JST) #159

====================================================================
   
     衛星情報 FOシリーズの軌道要素、テレメトリ、QSOの状況等を
   まとめてみました.

  1) おねがい
     熊本を直撃した台風18号によりアンテナを上げているポールが真中より折れ、
   現在衛星のテレメトリ等の受信ができなくなっています.
   2、3ヶ月後に復旧する予定です.それまでFO−29(JAS-2、ふじ3号)の
   テレメトリ等取得できた方はjamsat-bb等に投稿していただければ分析結果を
   これまでどうり掲載できます.何卒ご協力方宜しくお願い申し上げます.
       
 ■ 軌道要素1:「jamsat−keps:932」より 
              SB KEPS @ AMSAT  $ORB99288.N
       2Line Orbital Elements 99288.AMSAT

  HR AMSAT ORBITAL ELEMENTS FOR AMATEUR SATELLITES IN NASA FORMAT
  FROM WA5QGD FORT WORTH,TX October 15, 1999
  SEND SUBSCRIBE/UNSUBSCRIBE TO majordomo@amsat.org ONLY
  BID: ORB99288.N

 DECODE 2-LINE ELSETS WITH THE FOLLOWING KEY:
 1 AAAAAU 00  0  0 BBBBB.BBBBBBBB  .CCCCCCCC  00000-0  00000-0 0  DDDZ
 2 AAAAA EEE.EEEE FFF.FFFF GGGGGGG HHH.HHHH III.IIII JJ.JJJJJJJJKKKKKZ
 KEY: A-CATALOGNUM B-EPOCHTIME C-DECAY D-ELSETNUM E-INCLINATION F-RAAN
 G-ECCENTRICITY H-ARGPERIGEE I-MNANOM J-MNMOTION K-ORBITNUM Z-CHECKSUM

 TO ALL RADIO AMATEURS BT
 
  FO-29
  1 24278U 96046B   99286.85362524  .00000067  00000-0  10223-3 0 02882
  2 24278 098.5742 222.2111 0352143 146.8890 215.4842 13.52680907155856
 
 ■ 軌道要素2:「jamsat−keps:932」より
                         
         SB KEPS @ AMSAT  $ORB99288.O
         Orbital Elements  99288.OSCAR

 HR AMSAT ORBITAL ELEMENTS FOR OSCAR SATELLITES
 FROM WA5QGD FORT WORTH,TX October 15, 1999
 SEND SUBSCRIBE/UNSUBSCRIBE TO majordomo@amsat.org ONLY
 BID: ORB99288.O
 TO ALL RADIO AMATEURS BT

  Satellite: FO-29
 Catalog number: 24278
 Epoch time:      99286.85362524
 Element set:    0288
 Inclination:      098.5742 deg
 RA of node:       222.2111 deg
 Eccentricity:    0.0352143
 Arg of perigee:   146.8890 deg
 Mean anomaly:     215.4842 deg
 Mean motion:   13.52680907 rev/day
 Decay rate:        6.7e-07 rev/day^2
 Epoch rev:           15585
 Checksum:              336
 
 --------------------------  FO-29(JAS-2) QSOに関する情報  ------------------------
 
  [jamsat:bb4718]に 7K4IIN局 中島 昌一氏がFO‐29、FO-20のアナログモードQSOについての
 記事が投稿されていましたので転載させて頂きました.

 7K4iiN@日立市の中島です.
 ■■■低軌道アナログ衛星に出ませんか?■■■

  今年に入って、FO-20, 29の受信証が時々届く様になりました.
 メールなどでも受信の報告をいくつかいただいています.
 知らない方から電話で受信成功の感動をお聞かせいただくこともありました.
 どの受信証も実は送信設備まで完備されている方からで、これから衛星通信に
 挑戦される方が(まだまだ)沢山いらっしゃるようです.
  アマチュア衛星通信の手始めとしてアナログモードは馴染みやすいと思います.
 受信証をいただいた方々とも近々交信できるのを、楽しみにしております.
 おかげさまで、小生も皆様との交信を重ねることで、衛星にまつわるAWARDを
 いくつか手に入れました.
 一方で最近、少し低軌道アナログ衛星が静かなように感じます.
 生意気とは思いますが新たに衛星に挑戦されている方々の為にも
 再び賑やかになればなぁと感じる次第です.
  今後とも皆様宜しくお願いします.
--`` `  --``` -`- ````- `` `` -`  --with Mac PowerBook
de 7K4iiN ; Inside Island Network
Shouichi Nakashima  中島 昌一, E-mail; jim@jsdi.or.jp
 7k4iin@jamsat.or.jp   URL;http://www.jsdi.or.jp/~tina88/7k4iin/
    ----- Office---E-mail; snakashi@hrl.hitachi.co.jp
  TKS es CUAGN ----  ........ --... ...--  - ..- ..

  ---------------   FO-20(JAS-1b) のアナログモード QRV 運用 ------------------------
 
  [jamsat:bb4719]に7N1JVW局 藤田 忠義 氏がFO−20のアナログモードのQRVとそのスケジュールを
 投稿されていましたので転載致します.

 みなさまこんにちは。

 湘南衛星通信同好会のメンバーがサイパンへ移動、衛星通信もQRVとのことで
 FO-20 の、サイパンと横浜、大阪、福岡とのウインドウを計算しました。

                            1999/10/15
                            7N1JVW 藤田忠義  横浜市緑区
 
 >JAMSAT 各局 さん、こんにちは。
 >OCT 15...18th KH0からQRV
 >
 >湘南衛星通信同好会のメンばー JN1AYV,JR1WZI,JF1GXA,JA3CG らは、10月
 >15日夕から18日朝まで、KH0 サイパン島へ移動して HFから430MHzまでQRVの
 >予定です。サテライトは、AO-10、朝のAO-27,夕方のFO-20を予定しています。
 >聞こえておりましたら よろしくお願いします。
 >尚、EMEも受信を試みる予定です。
 >AO-10は、状況により CW でもQRVを考えております。よろしくお願いします。
 >     99/10/04(月) 21:25 西村 望 JA3CG(HAE14555)

 つぎのデータは軌道計算ソフトQT98を使って計算した、1999/10/15 から4日間の
 サイパンと南関東から同時に衛星が可視範囲に入る時間などです。
 サイパンの緯度・経度は N15.300 E146.000 (=W214.000)、海抜10mを使いました。

 Dur. の数値がウィンドウの継続時間 (分)で最大17分間、この時間の8割くらいが
 交信可能だと思います。短い時間や深夜をふくめば、1日に4、5回のパスが交信
 に使用できます。

 MUT. WINDOW: サイパン & 横浜市, FOR FO-20
     A.O.W.    (MA)   L.O.W. (MA)   Dur.   MinSQA (MA,SQ0+SQ1)   MinRng (MA)
15OCT99 190023 ( 74)  191742 (114)    17   191119 ( 99, 46+11)   190820 ( 93)
15OCT99 205308 ( 76)  210525 (104)    12   210304 ( 98, 52+47)   205905 ( 89)
16OCT99 065739 (175)  071201 (208)    14   070834 (200, 26+54)   070635 (195)
16OCT99 084925 (174)  090324 (206)    14   085323 (183, 53+30)   085523 (187)
16OCT99 173127 ( 85)  174458 (115)    14   174124 (107, 51+46)   173825 (101)
16OCT99 191931 ( 75)  193651 (115)    17   193127 (102, 48+7 )   192728 ( 93)
16OCT99 211329 ( 79)  212257 (101)     9   212257 (101, 52+50)   211827 ( 91)
17OCT99 071646 (175)  073141 (210)    15   072742 (200,  8+53)   072542 (196)
17OCT99 090933 (177)  092209 (206)    13   091232 (184, 54+39)   091431 (188)
17OCT99 174946 ( 84)  180452 (118)    15   175942 (106, 50+42)   175643 ( 99)
17OCT99 193849 ( 76)  195603 (116)    17   194945 (101, 47+21)   194646 ( 95)
17OCT99 213426 ( 84)  213917 ( 95)     5   213917 ( 95, 53+52)   213824 ( 93)

 MUT. WINDOW: サイパン & 大阪市, FOR FO-20
     A.O.W.    (MA)   L.O.W. (MA)   Dur.   MinSQA (MA,SQ0+SQ1)   MinRng (MA)
15OCT99 190034 ( 75)  191742 (114)    17   190533 ( 86, 11+48)   190732 ( 91)
15OCT99 205223 ( 74)  210525 (104)    13   210319 ( 99, 52+44)   205921 ( 90)
16OCT99 065739 (175)  071152 (207)    14   070834 (200, 26+55)   070735 (197)
16OCT99 084925 (174)  090400 (207)    15   085423 (185, 53+21)   085622 (190)
16OCT99 173226 ( 87)  174458 (115)    13   174122 (107, 51+48)   173824 (100)
16OCT99 191933 ( 75)  193651 (115)    17   193129 (102, 48+7 )   192730 ( 93)
16OCT99 211230 ( 77)  212257 (101)    10   212257 (101, 52+48)   211827 ( 91)
17OCT99 071646 (175)  073145 (210)    15   072742 (200,  8+53)   072642 (198)
17OCT99 090933 (177)  092253 (207)    13   091332 (186, 54+33)   091531 (190)
17OCT99 175032 ( 85)  180452 (118)    14   175929 (106, 50+46)   175630 ( 99)
17OCT99 193843 ( 76)  195603 (116)    17   195038 (103, 49+9 )   194640 ( 94)
17OCT99 213257 ( 81)  213917 ( 95)     6   213917 ( 95, 53+51)   213755 ( 92)

 MUT. WINDOW: サイパン & 福岡市, FOR FO-20
     A.O.W.    (MA)   L.O.W. (MA)   Dur.   MinSQA (MA,SQ0+SQ1)   MinRng (MA)
15OCT99 190059 ( 76)  191742 (114)    17   190457 ( 85,  8+51)   190756 ( 92)
15OCT99 205140 ( 72)  210525 (104)    14   210236 ( 97, 52+38)   205937 ( 90)
16OCT99 065739 (175)  071120 (206)    14   070834 (200, 26+56)   070735 (197)
16OCT99 084925 (174)  090447 (209)    15   085523 (187, 53+8 )   085622 (190)
16OCT99 173407 ( 91)  174458 (115)    11   174105 (107, 51+50)   173806 (100)
16OCT99 191946 ( 76)  193651 (115)    17   192444 ( 87, 13+48)   192643 ( 92)
16OCT99 211131 ( 75)  212257 (101)    11   212226 (100, 53+44)   211828 ( 91)
17OCT99 071646 (175)  073131 (209)    15   072742 (200,  8+54)   072642 (198)
17OCT99 090933 (177)  092346 (209)    14   091332 (186, 54+23)   091531 (190)
17OCT99 175147 ( 88)  180452 (118)    13   175545 ( 97, 47+52)   175645 (100)
17OCT99 193844 ( 76)  195603 (116)    17   195039 (103, 49+8 )   194641 ( 94)
17OCT99 213139 ( 78)  213917 ( 95)     8   213917 ( 95, 53+49)   213836 ( 94)

 【凡例】QT98のマニュアル抜粋

 A.O.W. (MA): ウィンドウの開始時刻 [UTC]、及びその時点での Phase (MA)。
 L.O.W. (MA): ウィンドウの終了時刻 [UTC]、及びその時点での Phase (MA)。
 Dur: ウィンドウの継続時間 ( 分 )
 MinSQA: 2つの都市に対する Squint Angle の合計値が最小になる時刻、及びその
    時点での Phase (MA)、その時点でのそれぞれの Squint Angle (SQ0+SQ1)。
 MinRng: 2つの都市からの Range の合計値が最小になる時刻、及びその時点での  Phase (MA)。

-----------------------    FO-20(JAS-1b)道要素   -------------------------------
 
 ■ 軌道要素1 :出典はFO-29「ふじ3号」に同じ.
  
  FO-20
 1 20480U 90013C   99286.99835445 -.00000003  00000-0  72992-4 0 01874
 2 20480 099.0240 099.0985 0539922 255.2593 098.8098 12.83256735453579
 
 ■ 軌道要素2 :出典はFO-29「ふじ3号」に同じ.
               
  Satellite: FO-20
 Catalog number: 20480
 Epoch time:      99286.99835445
 Element set:    0187
 Inclination:      099.0240 deg
 RA of node:       099.0985 deg
 Eccentricity:    0.0539922
 Arg of perigee:   255.2593 deg
 Mean anomaly:     098.8098 deg
 Mean motion:   12.83256735 rev/day
 Decay rate:       -3.0e-08 rev/day^2
 Epoch rev:           45357
 Checksum:              362Satellite: FO-20
 
 
 ==================================================================================

 5)JARL のホームページに運用予定が記載されていましたのでご紹介します.
       ( http://www.jarl.or.jp/Japanese/3_Fuji/uy.htm )

        ■ ふじ3号/FOー29/JAS-2 ■  
  
  *** 運用予定について ***
    
   *10月08日 〜 10月18日     デジトーカ運用(予定変更:アナログ系運用)
    10月19日 〜 10月21日     アナログ系運用
    10月22日 〜 11月08日     デジトーカ運用
    11月09日 〜 11月15日     アナログ系運用 

  *:10月8日からデジトーカ運用の予定でしたが「ふじ3号」のコンピュータに
    メモリーエラーが発生したため,コンピュータのリセット,プログラムのロー
    ド作業を行います。
     アップロード作業が完了しだいデジトーカ運用を行いますのでしばらくの
    間,アナログ系運用といたします。

 ※なお,運用予定は都合により変更することがありますのでご了承願います。
 
  JAS−2ベリカードを希望の方へ
 「受信レポート」と住所,氏名を記入して80円切手を貼った返信用封筒を下記のところにお送り
 ください。
      〒170−8073 東京都豊島区巣鴨1−14−5
      (社)日本アマチュア無線連盟 技術研究所技術課
      「JASー2ベリカード希望」と記入してください。

 「受信レポート」の記入例
  1.日時 2.場所 3.受信強度 4.送信内容 5.使用した機種名 6.アンテナ 7.その他
   (:ご意見等)
  注)6.アンテナは「型番」ではなく,型式を記入してください。例:「何エレの八木アンテナ」, 
    「何段のGPアンテナ」・・・。
  7.ご意見,ご感想等お書きください。
  受信レポートの書式はA4版の用紙に記入してください。

  デジトーカの周波数は435.91MHzです。ハンディー機での受信も可能ですので是非トライして
 ください。

 ※受信方法はJARLNEWS9月号で紹介しています。

 照会先 : lab@jarl.or.jp
 
 最新の情報はテレホンサービス(:03−3942−1000)をお聞きください。
   
  以後の運用に付きましては11月8日(月)にお知らせいたします。
     
         ■ ふじ2号/FO−20/JAS-1b ■      
            
          「ふじ2号」 現況                                                                                  
             
   JAS-1b/FO-20(ふじ2号)の不具合発生について
    JAS-1b(ふじ2号)のCWテレメトリ信号に,1997年10月12日12時
 (JST)の日本上空通過時,3桁の数字が繰り返されるはずが3個の長音の
  繰り返しとなっているという異常が発見されました。この不具合は次の通過時
  からは回復していましたが13日15時20分の通過時に再び観測されました。
  衛星のアナログ系中継モード動作は異常が無く,正常時のテレメトリ内容からは
  衛星の動作に異常は認められません。従って,直ちに衛星のミッションに影響す
  ることは無いと予想されますので,当面はアナログ系中継モードを継続します。
  衛星は既に打ち上げてから7年8ヶ月を経ておりますので,今後は監視を強化す
  る予定です。アマチュア各位のレポートをお待ちします.   
  
  以上  http://www.jarl.or.jp/Japanese/3_Fuji/fuji.htm
                                           
   =============   JAS-2 (ふじ3号)と現在までの情報   ===========
  
  A.電話によるふじ3号の運用情報
      社団法人日本アマチュア連盟によるサービス
           TEL .   03− 3942 − 1000
  B.アマチュア無線FAXサービス
      JARLによるふじ3号の軌道情報(オービットカレンダー)
         FAX No.  03− 3233 −0055
  C.WWWブラウザで情報を簡単に見れる人のためにJAS−2
     ふじ3号の衛星としての運用されるまでの名前)の概要、打ち上げ
     までの状況、運用中における状況を説明したホームページを紹介し
     ておきます.
     社団法人日本アマチュア無線連盟(JARL)のホームページ

          http://www.jarl.or.jp/Japanese/3_Fuji
 
     宇宙開発事業団(NASDA)ホームページ 
          http://www.nasda.go.jp/
         打上げ衛星 :地球観測プラットフォーム技術衛星(ADEOS) 
                       アマチュア衛星3号(JAS-2)
          http://yyy.tksc.nasda.go.jp/Home/Press/Press-j/jas-2_j.html        

  D.JAMSATによる軌道情報の活用
        JAMSATのホームページまたはjamsat−kepsの軌道要素より
      衛星の軌道情報を得る.
     JAMSATホームページ
               URL    http://www.jamsat.or.jp
       上記ホームページでは各地で行われるアマチュア通信衛星に関する
      ミューティングのお知らせや世界のアマチュア衛星に関する情報が
      満載されています.
   
 =========================================================================
       JAMSATのメンバーのご協力によりJH6MME(高山 秀造)が
    執筆・編集を担当しております.ご指摘の意見、疑問やこのようにしたら
    というアイデアがありましたら小さなことでもかまいませんので気軽に下
    記アドレスまでご連絡ください.jamsat−newsからjas2
    infoへの転載をJH4PHW局坂井さんに担当して頂いております.
                    E-mail : jh6mme@jamsat.or.jp : jh4phw@jamsat.or.jp
 ===============================   END  ===============================